2024/02/01 00:00:00,12.4, 1.8
2024/02/01 00:10:00,12.4, 2.0
2024/02/01 00:20:00,12.3, 2.2
2024/02/01 00:30:00,12.3, 1.9
2024/02/01 00:40:00,12.3, 1.8
2024/02/01 00:50:00,12.2, 1.8
2024/02/01 01:00:00,12.2, 2.2
2024/02/01 01:10:00,12.2, 1.8
2024/02/01 01:20:00,12.2, 1.7
2024/02/01 01:30:00,12.2, 1.8
2024/02/01 01:40:00,12.2, 1.9
2024/02/01 01:50:00,12.1, 1.7
2024/02/01 02:00:00,11.9, 1.6
2024/02/01 02:10:00,11.8, 1.9
2024/02/01 02:20:00,11.8, 1.9
2024/02/01 02:30:00,11.7, 1.6
2024/02/01 02:40:00,11.7, 2.0
2024/02/01 02:50:00,11.7, 1.9
2024/02/01 03:00:00,11.7, 2.0
2024/02/01 03:10:00,11.8, 2.0
2024/02/01 03:20:00,11.6, 1.9
2024/02/01 03:30:00,11.6, 1.9
2024/02/01 03:40:00,11.5, 1.8
2024/02/01 03:50:00,11.4, 2.0
2024/02/01 04:00:00,11.4, 1.7
2024/02/01 04:10:00,11.3, 1.9
2024/02/01 04:20:00,11.3, 1.8
2024/02/01 04:30:00,11.1, 1.9
2024/02/01 04:40:00,11.0, 1.8
2024/02/01 04:50:00,10.9, 1.7
2024/02/01 05:00:00,10.8, 1.9
2024/02/01 05:10:00,10.8, 1.9
2024/02/01 05:20:00,10.9, 1.7
2024/02/01 05:30:00,10.9, 1.9
2024/02/01 05:40:00,10.8, 1.9
2024/02/01 05:50:00,10.6, 1.7
2024/02/01 06:00:00,10.5, 1.9
2024/02/01 06:10:00,10.3, 1.7
2024/02/01 06:20:00,10.3, 1.8
2024/02/01 06:30:00,10.2, 1.8
2024/02/01 06:40:00,10.2, 1.9
2024/02/01 06:50:00,10.2, 1.9
2024/02/01 07:00:00,10.2, 1.8
2024/02/01 07:10:00,10.2, 1.9
2024/02/01 07:20:00,10.2, 2.2
2024/02/01 07:30:00,10.3, 1.8
2024/02/01 07:40:00,10.3, 1.8
2024/02/01 07:50:00,10.1, 2.0
2024/02/01 08:00:00,10.2, 1.9
2024/02/01 08:10:00,10.2, 2.1
2024/02/01 08:20:00,10.2, 2.0
2024/02/01 08:30:00,10.1, 2.0
2024/02/01 08:40:00,10.2, 1.9
2024/02/01 08:50:00,10.1, 2.0
2024/02/01 09:00:00,10.3, 2.1
2024/02/01 09:10:00,10.1, 2.1
2024/02/01 09:20:00, 9.9, 2.0
2024/02/01 09:30:00,10.0, 2.3
2024/02/01 09:40:00,10.0, 2.4
2024/02/01 09:50:00, 9.8, 2.6
2024/02/01 10:00:00, 9.6, 2.4
2024/02/01 10:10:00, 9.6, 2.6
2024/02/01 10:20:00, 9.5, 2.6
2024/02/01 10:30:00, 9.5, 2.4
2024/02/01 10:40:00, 9.5, 2.4
2024/02/01 10:50:00, 9.5, 2.9
2024/02/01 11:00:00, 9.3, 2.9
2024/02/01 11:10:00, 9.3, 2.9
2024/02/01 11:20:00, 9.5, 2.7
2024/02/01 11:30:00, 9.5, 2.9
2024/02/01 11:40:00, 9.4, 2.8
2024/02/01 11:50:00, 9.3, 2.9
2024/02/01 12:00:00, 9.2, 2.9
2024/02/01 12:10:00, 9.4, 2.9
2024/02/01 12:20:00, 9.3, 3.3
2024/02/01 12:30:00, 9.1, 3.1
2024/02/01 12:40:00, 8.4, 4.7
2024/02/01 12:50:00, 8.4, 4.7
2024/02/01 13:00:00, 9.1, 4.4
2024/02/01 13:10:00, 9.1, 4.3
2024/02/01 13:20:00, 9.2, 4.1
2024/02/01 13:30:00, 9.2, 4.1
2024/02/01 13:40:00, 9.1, 4.0
2024/02/01 13:50:00, 9.0, 3.7
2024/02/01 14:00:00, 9.0, 3.8
2024/02/01 14:10:00, 8.9, 3.7
2024/02/01 14:20:00, 8.8, 3.7
2024/02/01 14:30:00, 8.7, 3.3
2024/02/01 14:40:00, 8.7, 3.4
2024/02/01 14:50:00, 8.7, 3.4
2024/02/01 15:00:00, 8.6, 3.3
2024/02/01 15:10:00, 8.7, 3.4
2024/02/01 15:20:00, 8.7, 3.2
2024/02/01 15:30:00, 8.7, 2.9
2024/02/01 15:40:00, 8.6, 2.9
2024/02/01 15:50:00, 8.6, 2.9
2024/02/01 16:00:00, 8.5, 2.7
2024/02/01 16:10:00, 8.5, 2.6
2024/02/01 16:20:00, 8.5, 2.8
2024/02/01 16:30:00, 8.4, 2.4
2024/02/01 16:40:00, 8.5, 2.5
2024/02/01 16:50:00, 8.5, 2.2
2024/02/01 17:00:00, 8.3, 2.0
2024/02/01 17:10:00, 8.2, 1.9
2024/02/01 17:20:00, 8.2, 1.9
2024/02/01 17:30:00, 8.2, 1.5
2024/02/01 17:40:00, 8.3, 1.6
2024/02/01 17:50:00, 8.3, 1.5
2024/02/01 18:00:00, 8.2, 1.5
2024/02/01 18:10:00, 8.2, 1.1
2024/02/01 18:20:00, 8.3, 1.1
2024/02/01 18:30:00, 8.4, 1.1
2024/02/01 18:40:00, 8.3, 0.9
2024/02/01 18:50:00, 8.2, 1.1
2024/02/01 19:00:00, 8.4, 0.8
2024/02/01 19:10:00, 8.3, 0.5
2024/02/01 19:20:00, 8.1, 0.6
2024/02/01 19:30:00, 8.1, 0.6
2024/02/01 19:40:00, 8.2, 0.6
2024/02/01 19:50:00, 8.1, 0.5
2024/02/01 20:00:00, 8.2, 0.3
2024/02/01 20:10:00, 8.2, 0.5
2024/02/01 20:20:00, 8.2, 0.6
2024/02/01 20:30:00, 8.2, 0.5
2024/02/01 20:40:00, 8.2, 0.6
2024/02/01 20:50:00, 8.2, 0.8
2024/02/01 21:00:00, 8.2, 0.7
2024/02/01 21:10:00, 8.1, 0.6
2024/02/01 21:20:00, 8.2, 0.5
2024/02/01 21:30:00, 8.3, 0.5
2024/02/01 21:40:00, 8.4, 0.6
2024/02/01 21:50:00, 8.2, 0.5
2024/02/01 22:00:00, 8.2, 0.2
2024/02/01 22:10:00, 8.2, 0.4
2024/02/01 22:20:00, 8.1, 0.3
2024/02/01 22:30:00, 8.2, 0.2
2024/02/01 22:40:00, 8.2, 0.4
2024/02/01 22:50:00, 8.2, 0.4
2024/02/01 23:00:00, 8.1, 0.3
2024/02/01 23:10:00, 8.1, 0.2
2024/02/01 23:20:00, 8.1, 0.4
2024/02/01 23:30:00, 8.1, 0.4
2024/02/01 23:40:00, 8.3, 0.0
2024/02/01 23:50:00, 8.2, 0.4
